| time (UTC) | temp F | wind direction | speed MPH | gust MPH | rain 1hr in | rain 24hr in | rain mn in | humidity % | barometer mb |
| 20260906222027 | 53 | 0.0 | 0.0 | 0.00 | 0.00 | 0.00 | 88 | ||
| 20260906221022 | 54 | 0.0 | 0.0 | 0.00 | 0.00 | 0.00 | 87 | ||
| 20260906220023 | 54 | 0.0 | 0.0 | 0.00 | 0.00 | 0.00 | 85 | ||
| 20260906215019 | 55 | 0.0 | 0.0 | 0.00 | 0.00 | 0.00 | 84 | ||
| 20260906214029 | 56 | 0.0 | 0.0 | 0.00 | 0.00 | 0.00 | 83 | ||
| 20260906213019 | 56 | 172 | 0.0 | 1.0 | 0.00 | 0.00 | 0.00 | 83 | |
| 20260906212030 | 56 | 136 | 0.0 | 1.0 | 0.00 | 0.00 | 0.00 | 83 | |
| 20260906211023 | 56 | 165 | 0.0 | 1.0 | 0.00 | 0.00 | 0.00 | 84 | |
| 20260906210027 | 56 | 152 | 0.0 | 1.0 | 0.00 | 0.00 | 0.00 | 85 | |
| 20260906205022 | 56 | 171 | 0.0 | 1.0 | 0.00 | 0.00 | 0.00 | 85 | |
| 20260906204020 | 56 | 0.0 | 0.0 | 0.00 | 0.00 | 0.00 | 84 | ||
| 20260906203021 | 56 | 0.0 | 0.0 | 0.00 | 0.00 | 0.00 | 83 | ||
| 20260906202020 | 57 | 0.0 | 0.0 | 0.00 | 0.00 | 0.00 | 82 | ||
| 20260906201019 | 57 | 213 | 0.0 | 1.0 | 0.00 | 0.00 | 0.00 | 83 | |
| 20260906200027 | 57 | 0.0 | 0.0 | 0.00 | 0.00 | 0.00 | 83 | ||
| 20260906195020 | 57 | 0.0 | 0.0 | 0.00 | 0.00 | 0.00 | 81 | ||
| 20260906194027 | 58 | 0.0 | 0.0 | 0.00 | 0.00 | 0.00 | 80 | ||
| 20260906193019 | 58 | 0.0 | 0.0 | 0.00 | 0.00 | 0.00 | 77 | ||
| 20260906192032 | 59 | 0.0 | 0.0 | 0.00 | 0.00 | 0.00 | 74 | ||
| 20260906191019 | 60 | 0.0 | 0.0 | 0.00 | 0.00 | 0.00 | 74 | ||
| 20260906190028 | 61 | 223 | 0.0 | 1.0 | 0.00 | 0.00 | 0.00 | 73 | |
| 20260906185019 | 61 | 134 | 0.0 | 1.0 | 0.00 | 0.00 | 0.00 | 72 | |
| 20260906184027 | 62 | 0.0 | 0.0 | 0.00 | 0.00 | 0.00 | 69 | ||
| 20260906183019 | 62 | 240 | 0.0 | 1.0 | 0.00 | 0.00 | 0.00 | 69 | |
| 20260906182027 | 62 | 0.0 | 0.0 | 0.00 | 0.00 | 0.00 | 69 | ||
| 20260906181020 | 63 | 0.0 | 0.0 | 0.00 | 0.00 | 0.00 | 67 | ||
| 20260906180027 | 64 | 0.0 | 0.0 | 0.00 | 0.00 | 0.00 | 67 | ||
| 20260906175019 | 65 | 0.0 | 0.0 | 0.00 | 0.00 | 0.00 | 66 | ||
| 20260906174027 | 66 | 184 | 0.0 | 2.0 | 0.00 | 0.00 | 0.00 | 62 | |
| 20260906173019 | 67 | 172 | 1.0 | 2.0 | 0.00 | 0.00 | 0.00 | 60 | |
| 20260906172026 | 67 | 189 | 1.0 | 2.0 | 0.00 | 0.00 | 0.00 | 60 | |
| 20260906171019 | 68 | 180 | 0.0 | 2.0 | 0.00 | 0.00 | 0.00 | 60 | |
| 20260906170029 | 69 | 175 | 0.0 | 2.0 | 0.00 | 0.00 | 0.00 | 59 | |
| 20260906165019 | 69 | 174 | 0.0 | 2.0 | 0.00 | 0.00 | 0.00 | 57 | |
| 20260906164027 | 69 | 164 | 1.0 | 2.0 | 0.00 | 0.00 | 0.00 | 53 | |
| 20260906163019 | 69 | 172 | 0.0 | 2.0 | 0.00 | 0.00 | 0.00 | 55 | |
| 20260906162027 | 69 | 162 | 0.0 | 2.0 | 0.00 | 0.00 | 0.00 | 53 | |
| 20260906161019 | 70 | 163 | 0.0 | 2.0 | 0.00 | 0.00 | 0.00 | 52 | |
| 20260906160030 | 70 | 234 | 0.0 | 2.0 | 0.00 | 0.00 | 0.00 | 50 | |
| 20260906155019 | 70 | 145 | 1.0 | 2.0 | 0.00 | 0.00 | 0.00 | 49 | |
| 20260906154027 | 70 | 219 | 0.0 | 2.0 | 0.00 | 0.00 | 0.00 | 48 | |
| 20260906153021 | 70 | 242 | 1.0 | 4.0 | 0.00 | 0.00 | 0.00 | 48 | |
| 20260906152021 | 70 | 155 | 0.0 | 2.0 | 0.00 | 0.00 | 0.00 | 52 | |
| 20260906151019 | 70 | 164 | 1.0 | 2.0 | 0.00 | 0.00 | 0.00 | 52 | |
| 20260906150025 | 70 | 144 | 1.0 | 4.0 | 0.00 | 0.00 | 0.00 | 48 | |
| 20260906145019 | 70 | 186 | 1.0 | 3.0 | 0.00 | 0.00 | 0.00 | 47 | |
| 20260906144027 | 71 | 168 | 1.0 | 3.0 | 0.00 | 0.00 | 0.00 | 46 | |
| 20260906143019 | 71 | 115 | 1.0 | 4.0 | 0.00 | 0.00 | 0.00 | 47 | |
| 20260906142027 | 71 | 129 | 1.0 | 4.0 | 0.00 | 0.00 | 0.00 | 47 | |
| 20260906141023 | 71 | 173 | 2.0 | 4.0 | 0.00 | 0.00 | 0.00 | 48 | |
| 20260906140029 | 72 | 196 | 1.0 | 4.0 | 0.00 | 0.00 | 0.00 | 48 | |
| 20260906135037 | 73 | 152 | 1.0 | 3.0 | 0.00 | 0.00 | 0.00 | 46 | |
| 20260906134027 | 73 | 161 | 1.0 | 4.0 | 0.00 | 0.00 | 0.00 | 47 | |
| 20260906133020 | 73 | 153 | 1.0 | 4.0 | 0.00 | 0.00 | 0.00 | 46 | |
| 20260906132019 | 73 | 140 | 2.0 | 4.0 | 0.00 | 0.00 | 0.00 | 44 | |
| 20260906131021 | 75 | 150 | 1.0 | 2.0 | 0.00 | 0.00 | 0.00 | 44 | |
| 20260906130027 | 73 | 292 | 1.0 | 2.0 | 0.00 | 0.00 | 0.00 | 46 | |
| 20260906125019 | 74 | 158 | 1.0 | 5.0 | 0.00 | 0.00 | 0.00 | 45 | |
| 20260906124027 | 73 | 109 | 1.0 | 3.0 | 0.00 | 0.00 | 0.00 | 45 | |
| 20260906123019 | 72 | 97 | 1.0 | 2.0 | 0.00 | 0.00 | 0.00 | 46 | |
| 20260906122028 | 72 | 167 | 1.0 | 4.0 | 0.00 | 0.00 | 0.00 | 46 | |
| 20260906121021 | 73 | 13 | 1.0 | 4.0 | 0.00 | 0.00 | 0.00 | 45 | |
| 20260906120027 | 71 | 19 | 1.0 | 4.0 | 0.00 | 0.00 | 0.00 | 49 | |
| 20260906115019 | 71 | 73 | 1.0 | 4.0 | 0.00 | 0.00 | 0.00 | 50 | |
| 20260906114029 | 72 | 172 | 1.0 | 3.0 | 0.00 | 0.00 | 0.00 | 49 | |
| 20260906113019 | 72 | 11 | 1.0 | 2.0 | 0.00 | 0.00 | 0.00 | 50 | |
| 20260906112027 | 71 | 156 | 2.0 | 4.0 | 0.00 | 0.00 | 0.00 | 51 | |
| 20260906111019 | 71 | 148 | 1.0 | 6.0 | 0.00 | 0.00 | 0.00 | 52 | |
| 20260906110029 | 70 | 175 | 1.0 | 4.0 | 0.00 | 0.00 | 0.00 | 53 | |
| 20260906105021 | 70 | 31 | 1.0 | 4.0 | 0.00 | 0.00 | 0.00 | 54 | |
| 20260906104029 | 69 | 186 | 1.0 | 5.0 | 0.00 | 0.00 | 0.00 | 54 | |
| 20260906103021 | 69 | 135 | 0.0 | 2.0 | 0.00 | 0.00 | 0.00 | 54 | |
| 20260906102028 | 70 | 153 | 1.0 | 4.0 | 0.00 | 0.00 | 0.00 | 55 | |
| 20260906101021 | 69 | 151 | 2.0 | 5.0 | 0.00 | 0.00 | 0.00 | 54 | |
| 20260906100022 | 69 | 220 | 1.0 | 3.0 | 0.00 | 0.00 | 0.00 | 53 | |
| 20260906095019 | 69 | 309 | 0.0 | 2.0 | 0.00 | 0.00 | 0.00 | 54 | |
| 20260906094029 | 69 | 57 | 0.0 | 2.0 | 0.00 | 0.00 | 0.00 | 52 | |
| 20260906093019 | 68 | 147 | 1.0 | 2.0 | 0.00 | 0.00 | 0.00 | 55 | |
| 20260906092029 | 68 | 159 | 1.0 | 4.0 | 0.00 | 0.00 | 0.00 | 56 | |
| 20260906091019 | 68 | 101 | 0.0 | 2.0 | 0.00 | 0.00 | 0.00 | 59 | |
| 20260906090028 | 67 | 128 | 1.0 | 2.0 | 0.00 | 0.00 | 0.00 | 60 | |
| 20260906085021 | 67 | 6 | 0.0 | 2.0 | 0.00 | 0.00 | 0.00 | 65 | |
| 20260906084027 | 66 | 159 | 1.0 | 2.0 | 0.00 | 0.00 | 0.00 | 66 | |
| 20260906083020 | 64 | 192 | 1.0 | 3.0 | 0.00 | 0.00 | 0.00 | 71 | |
| 20260906082027 | 63 | 173 | 2.0 | 4.0 | 0.00 | 0.00 | 0.00 | 73 | |
| 20260906081019 | 62 | 163 | 1.0 | 3.0 | 0.00 | 0.00 | 0.00 | 76 | |
| 20260906080025 | 60 | 158 | 1.0 | 4.0 | 0.00 | 0.00 | 0.00 | 79 | |
| 20260906075019 | 58 | 149 | 1.0 | 3.0 | 0.00 | 0.00 | 0.00 | 85 | |
| 20260906074027 | 56 | 157 | 1.0 | 3.0 | 0.00 | 0.00 | 0.00 | 88 | |
| 20260906073019 | 55 | 161 | 1.0 | 4.0 | 0.00 | 0.00 | 0.00 | 90 | |
| 20260906072027 | 54 | 169 | 1.0 | 2.0 | 0.00 | 0.00 | 0.00 | 91 | |
| 20260906071022 | 53 | 140 | 1.0 | 3.0 | 0.00 | 0.00 | 0.00 | 94 | |
| 20260906070029 | 52 | 153 | 1.0 | 3.0 | 0.00 | 0.00 | 0.00 | 97 | |
| 20260906065019 | 51 | 169 | 1.0 | 2.0 | 0.00 | 0.00 | 0.00 | 98 | |
| 20260906064027 | 50 | 145 | 0.0 | 2.0 | 0.00 | 0.00 | 0.00 | 98 | |
| 20260906063019 | 49 | 177 | 1.0 | 2.0 | 0.00 | 0.00 | 0.00 | 98 | |
| 20260906062020 | 47 | 0.0 | 0.0 | 0.00 | 0.00 | 0.00 | 98 | ||
| 20260906061021 | 47 | 0.0 | 0.0 | 0.00 | 0.00 | 0.00 | 98 | ||
| 20260906060027 | 46 | 0.0 | 0.0 | 0.00 | 0.00 | 0.00 | 98 | ||
| 20260906055019 | 45 | 0.0 | 0.0 | 0.00 | 0.00 | 0.00 | 97 | ||
| 20260906054027 | 44 | 0.0 | 0.0 | 0.00 | 0.00 | 0.00 | 97 | ||
| 20260906053020 | 44 | 0.0 | 0.0 | 0.00 | 0.00 | 0.00 | 97 | ||
| 20260906052029 | 44 | 0.0 | 0.0 | 0.00 | 0.00 | 0.00 | 97 | ||
| 20260906051019 | 44 | 0.0 | 0.0 | 0.00 | 0.00 | 0.00 | 97 | ||
| 20260906050029 | 44 | 0.0 | 0.0 | 0.00 | 0.00 | 0.00 | 97 | ||
| 20260906045019 | 44 | 0.0 | 0.0 | 0.00 | 0.00 | 0.00 | 97 | ||
| 20260906044023 | 43 | 0.0 | 0.0 | 0.00 | 0.00 | 0.00 | 97 | ||
| 20260906043019 | 44 | 355 | 0.0 | 2.0 | 0.00 | 0.00 | 0.00 | 96 | |
| 20260906042028 | 44 | 0.0 | 0.0 | 0.00 | 0.00 | 0.00 | 97 | ||
| 20260906041019 | 44 | 0.0 | 0.0 | 0.00 | 0.00 | 0.00 | 96 | ||
| 20260906040031 | 45 | 0.0 | 0.0 | 0.00 | 0.00 | 0.00 | 96 | ||
| 20260906035019 | 45 | 0.0 | 0.0 | 0.00 | 0.00 | 0.00 | 96 | ||
| 20260906034027 | 45 | 0.0 | 0.0 | 0.00 | 0.00 | 0.00 | 96 | ||
| 20260906033019 | 46 | 214 | 0.0 | 1.0 | 0.00 | 0.00 | 0.00 | 96 | |
| 20260906032027 | 46 | 0.0 | 0.0 | 0.00 | 0.00 | 0.00 | 96 | ||
| 20260906031021 | 46 | 0.0 | 0.0 | 0.00 | 0.00 | 0.00 | 96 | ||
| 20260906030027 | 47 | 0.0 | 0.0 | 0.00 | 0.00 | 0.00 | 96 | ||
| 20260906025020 | 47 | 0.0 | 0.0 | 0.00 | 0.00 | 0.00 | 96 | ||
| 20260906024027 | 47 | 0.0 | 0.0 | 0.00 | 0.00 | 0.00 | 96 | ||
| 20260906023019 | 48 | 158 | 0.0 | 2.0 | 0.00 | 0.00 | 0.00 | 96 | |
| 20260906022028 | 48 | 0.0 | 0.0 | 0.00 | 0.00 | 0.00 | 96 | ||
| 20260906021021 | 48 | 0.0 | 0.0 | 0.00 | 0.00 | 0.00 | 96 | ||
| 20260906020028 | 48 | 0.0 | 0.0 | 0.00 | 0.00 | 0.00 | 95 | ||
| 20260906015020 | 48 | 206 | 0.0 | 1.0 | 0.00 | 0.00 | 0.00 | 95 | |
| 20260906014021 | 48 | 0.0 | 0.0 | 0.00 | 0.00 | 0.00 | 95 | ||
| 20260906013019 | 48 | 0.0 | 0.0 | 0.00 | 0.00 | 0.00 | 95 | ||
| 20260906012028 | 48 | 0.0 | 0.0 | 0.00 | 0.00 | 0.00 | 94 | ||
| 20260906011020 | 49 | 0.0 | 0.0 | 0.00 | 0.00 | 0.00 | 94 | ||
| 20260906010024 | 49 | 0.0 | 0.0 | 0.00 | 0.00 | 0.00 | 94 | ||
| 20260906005019 | 50 | 0.0 | 0.0 | 0.00 | 0.00 | 0.00 | 94 | ||
| 20260906004027 | 50 | 0.0 | 0.0 | 0.00 | 0.00 | 0.00 | 93 | ||
| 20260906003019 | 50 | 0.0 | 0.0 | 0.00 | 0.00 | 0.00 | 93 | ||
| 20260906002029 | 51 | 0.0 | 0.0 | 0.00 | 0.00 | 0.00 | 93 | ||
| 20260906001023 | 51 | 0.0 | 0.0 | 0.00 | 0.00 | 0.00 | 92 | ||
| 20260906000030 | 51 | 349 | 0.0 | 1.0 | 0.00 | 0.00 | 0.00 | 92 | |
| 20260905235019 | 51 | 141 | 0.0 | 1.0 | 0.00 | 0.00 | 0.00 | 91 | |
| 20260905234027 | 52 | 0.0 | 0.0 | 0.00 | 0.00 | 0.00 | 90 | ||
| 20260905233021 | 52 | 36 | 0.0 | 1.0 | 0.00 | 0.00 | 0.00 | 89 | |
| 20260905232020 | 53 | 0.0 | 0.0 | 0.00 | 0.00 | 0.00 | 89 | ||
| 20260905231102 | 53 | 341 | 1.0 | 2.0 | 0.00 | 0.00 | 0.00 | 89 | |
| 20260905230027 | 53 | 0.0 | 0.0 | 0.00 | 0.00 | 0.00 | 87 | ||
| 20260905225019 | 54 | 353 | 1.0 | 2.0 | 0.00 | 0.00 | 0.00 | 87 | |
| 20260905224027 | 55 | 349 | 1.0 | 2.0 | 0.00 | 0.00 | 0.00 | 85 | |
| 20260905223019 | 57 | 351 | 2.0 | 4.0 | 0.00 | 0.00 | 0.00 | 81 |